User: anonymous   Login
Location: Unspecified
(0.0000°N, 0.0000°E)
Time: 07:50:45
(UTC+00:00)
Language:

COSMOS 2467 - Orbit

View from above orbital plane
View from above orbital plane
View from above satellite
View from above satellite

Ground track
Ground track

The orbit data is extracted from the following two-line orbital elements,

1 37152U 10043A   17329.12589570  .00000046  00000-0  25760-3 0  9998
2 37152  82.4599 220.2827 0001508  92.0604 268.0655 12.42874378327207
Epoch (UTC): 25 November 2017 03:01:17
Eccentricity: 0.0001508
inclination: 82.4599°
perigee height: 1493 km
apogee height: 1495 km
right ascension of ascending node: 220.2827°
argument of perigee: 92.0604°
revolutions per day: 12.42874378
mean anomaly at epoch: 268.0655°
orbit number at epoch: 32720

The dashed part of the orbit path shows where the satellite is in the earth's shadow,  

DLR